Regional Weather Roundup
Issued by NWS Jackson, KY

Home | Current Version | Previous Version | Graphics & Text | Print | Product List | Glossary On
Versions: 1 2 3 4 5 6 7 8 9 10 11 12 13 14 15 16 17 18 19 20 21 22 23 24 25 26 27 28 29 30 31 32 33 34 35 36 37 38 39 40 41 42 43 44 45 46 47 48 49 50
000
ASUS43 KJKL 230419
RWRJKL

EAST KENTUCKY HOURLY WEATHER ROUNDUP
NATIONAL WEATHER SERVICE JACKSON KY
1200 AM EDT WED APR 23 2014

NOTE: "FAIR" INDICATES FEW OR NO CLOUDS BELOW 12,000 FEET WITH
NO SIGNIFICANT WEATHER AND/OR OBSTRUCTIONS TO VISIBILITY.

* THESE REPORTS ARE NOT UNDER NWS QUALITY CONTROL AND MAY NOT
  REPORT WEATHER SUCH AS PRECIPITATION AND FOG.

KYZ079-080-083-085-087-088-110-112-115-119-120-230500
...EASTERN KENTUCKY...

CITY           SKY/WX    TMP DP  RH WIND       PRES   REMARKS
JACKSON        CLEAR     55  29  36 VRB6      29.91R
LONDON         CLEAR     58  31  35 N8        29.91R
SOMERSET*      CLEAR     55  28  35 N8G18     29.94R
WILLIAMSBURG*  CLEAR     57  34  41 N6        29.92
MIDDLESBORO*   CLEAR     61  33  35 N12G17    29.90R
HARLAN APT*    CLEAR     59  32  36 NW6       29.89R
BLACK MTN*       N/A     46  30  53 N6          N/A
PIKEVILLE APT* CLEAR     57  30  35 NW12G23   29.88R
BIG SANDY*     CLEAR     57  31  37 N10G17    29.89R
ASHLAND*       CLEAR     52  32  46 N12       29.91R
MOREHEAD APT*  CLEAR     50  32  50 N14       29.97R
$$

KYZ035-036-041-042-044-050-067-078-099-230500
...CENTRAL KENTUCKY...

CITY           SKY/WX    TMP DP  RH WIND       PRES   REMARKS
MT STERLING*   CLEAR     50  32  50 N14G20    29.97R
FLEMING/MASON* CLEAR     48  32  53 NW9G18    29.97R
RICHMOND*      CLEAR     54  32  43 N12G18    29.94R
LEXINGTON      CLEAR     51  33  50 N13       29.95S
FRANKFORT      CLEAR     52  32  46 N12       29.96R
$$

KYZ091>093-OHZ055-061-077-WVZ005-015-034-035-042-230500
...SOUTHERN OHIO/WEST VIRGINIA...

CITY           SKY/WX    TMP DP  RH WIND       PRES   REMARKS
COVINGTON      CLEAR     47  30  51 N10       29.98R
COLUMBUS       PTCLDY    50  32  50 NW15      29.90S
DAYTON         CLEAR     44  31  60 N13       29.97R
WILMINGTON     CLEAR     45  29  53 N12       29.95S
HUNTINGTON     CLEAR     53  33  46 NW14G23   29.90R
CHARLESTON     CLEAR     55  32  41 NW12G28   29.87R
PINEVILLE*     CLEAR     60  35  38 MISG      29.88R
BECKLEY        CLEAR     54  28  36 NW16      29.83R
BLUEFIELD      CLEAR     59  33  37 NW16G26   29.83R
$$

VAZ002-007-008-TNZ017-027-036-066-071-230500
...SOUTHWEST VIRGINIA/EAST TENNESSEE...

CITY           SKY/WX    TMP DP  RH WIND       PRES   REMARKS
WISE*          CLEAR     55  32  41 NW13G18   29.88S
ABINGDON*      CLEAR     59  56  92 W6        29.85R
BRISTOL        PTCLDY    58  56  93 W5        29.85R
KNOXVILLE      PTCLDY    62  54  74 NW5       29.86S
OAK RIDGE      CLEAR     63  44  50 VRB3      29.88S
CROSSVILLE     CLEAR     58  38  47 VRB3      29.93R
NASHVILLE      CLEAR     60  40  47 N8G18     29.95R
$$

...KEY TO REMARKS...
VSB - VISIBILITY IN MILES
WCI - WIND CHILL INDEX
HX  - HEAT INDEX

$$



USA.gov is the U.S. government's official web portal to all federal, state and local government web resources and services.